[[{"header":{"parameterUnit":"m.s-1","parameterCategory":2,"la1":30.2992,"la2":30.254,"lo1":-89.0895,"lo2":-89.0443,"dy":0.0025,"dx":0.0025,"nx":19,"ny":19,"refTime":"2026-04-22T03:00:00:Z","depth":"0","parameterNumber":2,"parameterNumberName":"U-component_of_CURRENTS"},"data":[0,0,0,-0.2809,-0.281,-0.2854,-0.2855,-0.2873,-0.2873,0,0,0,0,0,0,0,0,0,0,0,-0.2779,-0.2779,-0.2809,-0.281,-0.2854,-0.2855,-0.2873,-0.2873,0,0,0,0,0,0,0,0,0,0,0,-0.2779,-0.2779,-0.2779,-0.281,-0.2854,-0.2855,-0.2873,-0.2846,0,0,0,0,0,0,0,0,0,0,-0.2807,-0.2783,-0.2779,-0.2779,-0.2811,-0.2854,-0.2855,-0.2845,-0.2848,-0.2844,0,-0.2849,0,-0.2872,-0.2874,-0.2874,0,0,0,-0.28,-0.278,-0.2803,-0.2779,-0.2811,-0.2854,-0.2832,-0.2847,-0.285,-0.2848,-0.285,-0.2851,-0.2872,-0.2874,-0.2874,-0.2929,-0.2929,0,0,-0.2798,-0.2777,-0.2801,-0.2805,-0.282,-0.283,-0.2833,-0.2849,-0.2844,-0.285,-0.2852,-0.2872,-0.2874,-0.2874,-0.2928,-0.2929,0,0,0,-0.2797,-0.2775,-0.2798,-0.2803,-0.282,-0.2832,-0.2835,-0.2842,-0.2853,-0.2853,-0.2872,-0.2874,-0.2875,-0.2928,-0.2929,-0.2954,0,0,0,-0.2795,-0.2777,-0.2796,-0.2783,-0.282,-0.2837,-0.2828,-0.2851,-0.2855,-0.2872,-0.2874,-0.2875,-0.2927,-0.2928,-0.2952,-0.2966,0,0,0,-0.2778,-0.2775,-0.2781,-0.2782,-0.2809,-0.2837,-0.2848,-0.2852,-0.2867,-0.2874,-0.2875,-0.2927,-0.2928,-0.295,-0.2964,-0.2941,0,0,0,-0.2754,-0.276,-0.278,-0.2803,-0.2809,-0.2867,-0.2848,-0.2877,-0.2885,-0.2874,-0.2927,-0.2929,-0.295,-0.2962,-0.294,-0.2759,-0.2749,0,0,-0.2751,-0.2759,-0.2778,-0.2798,-0.2856,-0.286,-0.2915,-0.291,-0.2901,-0.2916,-0.2918,-0.2953,-0.2963,-0.2941,-0.2823,-0.281,0,0,0,-0.2772,-0.2781,-0.2804,-0.2842,-0.2889,-0.293,-0.294,-0.2942,-0.2951,-0.2914,-0.2968,-0.2974,-0.2959,-0.2848,-0.2839,-0.2758,-0.2934,-0.2934,-0.2933,-0.2707,-0.2766,-0.2804,-0.2877,-0.292,-0.2977,-0.3002,-0.3007,-0.299,-0.2998,-0.3006,-0.3024,-0.2909,-0.2899,-0.282,-0.3017,-0.3017,-0.3018,-0.3018,-0.27,-0.2718,-0.2808,-0.2865,-0.2936,-0.2983,-0.305,-0.3048,-0.306,-0.3048,-0.303,-0.2895,-0.289,-0.2809,-0.3019,-0.3019,-0.3019,-0.3019,-0.3019,-0.2644,-0.2659,-0.2718,-0.2805,-0.2884,-0.297,-0.3011,-0.3064,-0.3074,-0.3084,-0.2918,-0.2915,-0.283,-0.3053,-0.3053,-0.3053,-0.3053,-0.3053,-0.3053,-0.2538,-0.2606,-0.2629,-0.274,-0.278,-0.2863,-0.2975,-0.2991,-0.296,-0.2934,-0.2931,-0.2818,-0.3034,-0.3017,-0.3053,-0.3053,-0.3053,-0.3053,-0.3053,-0.2423,-0.2465,-0.2492,-0.253,-0.2636,-0.263,-0.2797,-0.2771,-0.28,-0.2738,-0.2639,-0.2838,-0.2803,-0.2808,-0.2785,-0.2759,-0.2759,-0.2759,-0.2759,-0.2307,-0.2347,-0.2334,-0.2362,-0.242,-0.2506,-0.2404,-0.2427,-0.2433,-0.2386,-0.2478,-0.2424,-0.2439,-0.2384,-0.2398,-0.2367,-0.2236,-0.2236,-0.2235,-0.2191,-0.2227,-0.2156,-0.2231,-0.2296,-0.2315,-0.2136,-0.2047,-0.2106,-0.2216,-0.2408,-0.243,-0.2359,-0.239,-0.2309,-0.2336,-0.2289,0,0]},{"header":{"parameterUnit":"m.s-1","parameterCategory":2,"la1":30.2992,"la2":30.254,"lo1":-89.0895,"lo2":-89.0443,"dy":0.0025,"dx":0.0025,"nx":19,"ny":19,"refTime":"2026-04-22T03:00:00:Z","depth":"0","parameterNumber":3,"parameterNumberName":"V-component_of_CURRENTS"},"data":[0,0,0,-0.0354,-0.0353,-0.0255,-0.0254,-0.01,-0.0098,0,0,0,0,0,0,0,0,0,0,0,-0.0391,-0.0391,-0.0354,-0.0352,-0.0255,-0.0254,-0.01,-0.0098,0,0,0,0,0,0,0,0,0,0,0,-0.0392,-0.0391,-0.0391,-0.0352,-0.0255,-0.0254,-0.01,-0.0178,0,0,0,0,0,0,0,0,0,0,-0.0274,-0.0327,-0.0391,-0.0391,-0.0352,-0.0255,-0.0254,-0.0181,-0.0173,-0.014,0,-0.0138,0,-0.0119,-0.0089,-0.0088,0,0,0,-0.0337,-0.0335,-0.0302,-0.0391,-0.0351,-0.0256,-0.0295,-0.0177,-0.0167,-0.0129,-0.0136,-0.013,-0.0116,-0.0088,-0.0087,0.0012,0.0012,0,0,-0.0342,-0.0373,-0.0309,-0.0297,-0.0341,-0.0298,-0.0292,-0.0171,-0.017,-0.0135,-0.0126,-0.0113,-0.0087,-0.0086,0.0012,0.0012,0,0,0,-0.0368,-0.0377,-0.0348,-0.0303,-0.029,-0.0295,-0.0288,-0.0175,-0.0165,-0.0124,-0.0112,-0.0086,-0.0084,0.0012,0.0012,-0.0084,0,0,0,-0.0371,-0.0393,-0.0351,-0.0368,-0.0293,-0.0238,-0.0296,-0.0173,-0.0159,-0.0112,-0.0086,-0.0083,0.0012,0.0012,-0.0081,-0.0127,0,0,0,-0.0393,-0.0395,-0.0388,-0.037,-0.0334,-0.0239,-0.0221,-0.0169,-0.0151,-0.0088,-0.0083,0.0012,0.0012,-0.0079,-0.0122,-0.0068,0,0,0,-0.0422,-0.0445,-0.0389,-0.0412,-0.0335,-0.0301,-0.0221,-0.0184,-0.014,-0.0085,0.0012,0.0012,-0.0078,-0.0119,-0.0066,0.002,0.0021,0,0,-0.0471,-0.0451,-0.0465,-0.0414,-0.0419,-0.0313,-0.0291,-0.0198,-0.0123,-0.0023,-0.002,-0.0082,-0.0122,-0.0067,0.0021,0.0021,0,0,0,-0.0495,-0.051,-0.0501,-0.0489,-0.0434,-0.0374,-0.0274,-0.0211,-0.0121,-0.0097,-0.0054,-0.0076,-0.0039,0.0017,0.0017,0.0269,0.0012,0.0012,0.0012,-0.0596,-0.057,-0.0599,-0.0559,-0.0524,-0.0408,-0.0344,-0.0232,-0.0165,-0.0134,-0.0134,-0.0133,-0.0077,-0.0075,0.0182,-0.0107,-0.0107,-0.0108,-0.0108,-0.0696,-0.072,-0.0675,-0.0695,-0.0608,-0.0566,-0.0402,-0.033,-0.0208,-0.0177,-0.0135,-0.0063,-0.008,0.0195,-0.0114,-0.0113,-0.0112,-0.0111,-0.0111,-0.0776,-0.0785,-0.0787,-0.0801,-0.0767,-0.066,-0.0577,-0.0451,-0.0297,-0.0268,-0.0123,-0.012,0.011,-0.0227,-0.0227,-0.0227,-0.0227,-0.0226,-0.0226,-0.0857,-0.0858,-0.0911,-0.0909,-0.0913,-0.0858,-0.068,-0.0562,-0.034,-0.0206,-0.0204,0.0155,-0.0167,-0.0175,-0.0226,-0.0226,-0.0226,-0.0226,-0.0226,-0.0959,-0.0952,-0.1039,-0.1063,-0.1065,-0.1002,-0.0836,-0.0519,-0.0362,-0.0217,0.0224,-0.0128,-0.007,-0.0068,-0.0071,-0.0092,-0.0092,-0.0092,-0.0092,-0.1021,-0.1028,-0.1136,-0.1189,-0.1199,-0.1069,-0.0826,-0.0463,0.0066,0.0355,0.042,0.0482,0.0465,0.0559,0.0547,0.0559,0.0698,0.07,0.0701,-0.1082,-0.1113,-0.1192,-0.1241,-0.1257,-0.1109,-0.0817,-0.0288,0.0468,0.0757,0.0755,0.0721,0.0832,0.0786,0.0947,0.091,0.0934,0,0]}],[{"header":{"parameterUnit":"m.s-1","parameterCategory":2,"la1":30.2992,"la2":30.254,"lo1":-89.0895,"lo2":-89.0443,"dy":0.0025,"dx":0.0025,"nx":19,"ny":19,"refTime":"2026-04-22T03:00:00:Z","depth":"2","parameterNumber":2,"parameterNumberName":"U-component_of_CURRENTS"},"data":[0,0,0,-0.2625,-0.2627,-0.2679,-0.2679,-0.2696,-0.2696,0,0,0,0,0,0,0,0,0,0,0,-0.2595,-0.2596,-0.2625,-0.2627,-0.2679,-0.2679,-0.2696,-0.2696,0,0,0,0,0,0,0,0,0,0,0,-0.2595,-0.2595,-0.2596,-0.2627,-0.2679,-0.2679,-0.2696,-0.2667,0,0,0,0,0,0,0,0,0,0,-0.2622,-0.26,-0.2595,-0.2596,-0.2627,-0.2679,-0.2679,-0.2666,-0.2669,-0.2661,0,-0.2669,0,-0.2691,-0.2697,-0.2697,0,0,0,-0.2618,-0.2597,-0.262,-0.2596,-0.2628,-0.2679,-0.2653,-0.2668,-0.2671,-0.2665,-0.2669,-0.2671,-0.2692,-0.2697,-0.2697,-0.2744,-0.2744,0,0,-0.2615,-0.2596,-0.2618,-0.2622,-0.264,-0.2651,-0.2655,-0.267,-0.2666,-0.267,-0.2672,-0.2692,-0.2697,-0.2697,-0.2743,-0.2744,0,0,0,-0.2613,-0.2594,-0.2617,-0.262,-0.2638,-0.2653,-0.2657,-0.2665,-0.2676,-0.2672,-0.2692,-0.2697,-0.2697,-0.2743,-0.2744,-0.2772,0,0,0,-0.2611,-0.2594,-0.2615,-0.2603,-0.2638,-0.2659,-0.2651,-0.2674,-0.2677,-0.2692,-0.2697,-0.2698,-0.2743,-0.2743,-0.277,-0.2783,0,0,0,-0.2593,-0.2592,-0.2599,-0.2602,-0.2632,-0.266,-0.267,-0.2675,-0.269,-0.2697,-0.2698,-0.2742,-0.2743,-0.2769,-0.2781,-0.2759,0,0,0,-0.257,-0.2578,-0.2599,-0.2622,-0.2631,-0.2687,-0.267,-0.2701,-0.271,-0.2697,-0.2743,-0.2744,-0.2768,-0.2779,-0.2758,-0.2574,-0.2563,0,0,-0.2568,-0.2577,-0.2595,-0.2616,-0.2671,-0.2679,-0.2731,-0.273,-0.2722,-0.2731,-0.2733,-0.2771,-0.278,-0.2759,-0.2631,-0.2619,0,0,0,-0.2589,-0.2598,-0.2619,-0.2657,-0.2703,-0.2743,-0.2756,-0.276,-0.277,-0.2735,-0.2783,-0.2789,-0.2773,-0.2661,-0.2652,-0.2748,-0.2748,-0.2748,-0.2748,-0.253,-0.2585,-0.262,-0.2687,-0.2729,-0.2786,-0.2811,-0.2818,-0.2805,-0.2815,-0.2821,-0.2838,-0.272,-0.2711,-0.2831,-0.2831,-0.2831,-0.2831,-0.2831,-0.2522,-0.2537,-0.2621,-0.2674,-0.2742,-0.2789,-0.2854,-0.2857,-0.2871,-0.2861,-0.2845,-0.2709,-0.2701,-0.2834,-0.2833,-0.2833,-0.2833,-0.2832,-0.2832,-0.2469,-0.2482,-0.2538,-0.2618,-0.2694,-0.2778,-0.2816,-0.2871,-0.2886,-0.2896,-0.2731,-0.2728,-0.2832,-0.2869,-0.2869,-0.2869,-0.2869,-0.2869,-0.2869,-0.2369,-0.2432,-0.2452,-0.2556,-0.2594,-0.2674,-0.2785,-0.2799,-0.2771,-0.2746,-0.2744,-0.285,-0.2849,-0.2834,-0.2869,-0.2869,-0.2869,-0.2869,-0.2869,-0.226,-0.2299,-0.232,-0.2355,-0.2452,-0.2436,-0.2603,-0.2577,-0.2608,-0.2546,-0.2644,-0.265,-0.2614,-0.2618,-0.2597,-0.257,-0.257,-0.257,-0.2569,-0.215,-0.2186,-0.2167,-0.2188,-0.2235,-0.231,-0.2193,-0.2183,-0.2265,-0.2259,-0.2273,-0.222,-0.2238,-0.218,-0.2195,-0.2165,-0.2024,-0.2024,-0.2023,-0.204,-0.207,-0.1998,-0.2061,-0.2112,-0.2116,-0.1907,-0.1723,-0.1769,-0.2005,-0.2214,-0.2526,-0.2484,-0.2499,-0.2438,-0.2451,-0.2414,0,0]},{"header":{"parameterUnit":"m.s-1","parameterCategory":2,"la1":30.2992,"la2":30.254,"lo1":-89.0895,"lo2":-89.0443,"dy":0.0025,"dx":0.0025,"nx":19,"ny":19,"refTime":"2026-04-22T03:00:00:Z","depth":"2","parameterNumber":3,"parameterNumberName":"V-component_of_CURRENTS"},"data":[0,0,0,-0.0378,-0.0377,-0.0282,-0.0282,-0.0133,-0.0132,0,0,0,0,0,0,0,0,0,0,0,-0.0414,-0.0414,-0.0378,-0.0377,-0.0282,-0.0281,-0.0133,-0.0132,0,0,0,0,0,0,0,0,0,0,0,-0.0415,-0.0414,-0.0414,-0.0376,-0.0282,-0.0281,-0.0134,-0.0208,0,0,0,0,0,0,0,0,0,0,-0.0302,-0.0352,-0.0414,-0.0414,-0.0376,-0.0282,-0.0281,-0.0212,-0.0204,-0.0173,0,-0.0171,0,-0.0152,-0.0123,-0.0122,0,0,0,-0.0361,-0.036,-0.0329,-0.0414,-0.0375,-0.0283,-0.032,-0.0207,-0.0198,-0.0162,-0.0168,-0.0163,-0.0149,-0.0122,-0.0121,-0.0028,-0.0028,0,0,-0.0367,-0.0397,-0.0335,-0.0323,-0.0365,-0.0324,-0.0318,-0.0202,-0.0201,-0.0168,-0.0159,-0.0147,-0.0121,-0.012,-0.0028,-0.0028,0,0,0,-0.0392,-0.0401,-0.0372,-0.0329,-0.0316,-0.0321,-0.0314,-0.0206,-0.0196,-0.0158,-0.0145,-0.012,-0.0118,-0.0028,-0.0028,-0.0122,0,0,0,-0.0394,-0.0416,-0.0375,-0.0392,-0.0319,-0.0266,-0.0322,-0.0204,-0.019,-0.0146,-0.012,-0.0117,-0.0028,-0.0028,-0.012,-0.0167,0,0,0,-0.0416,-0.0418,-0.0411,-0.0394,-0.0358,-0.0267,-0.025,-0.02,-0.0183,-0.0122,-0.0117,-0.0028,-0.0028,-0.0117,-0.0162,-0.0119,0,0,0,-0.0443,-0.0464,-0.0412,-0.0431,-0.036,-0.0326,-0.025,-0.0213,-0.0171,-0.0119,-0.0028,-0.0028,-0.0117,-0.0159,-0.0118,-0.0044,-0.0045,0,0,-0.0488,-0.047,-0.0482,-0.0434,-0.0438,-0.0337,-0.0317,-0.0228,-0.0155,-0.0062,-0.0059,-0.0121,-0.0162,-0.0119,-0.0045,-0.0046,0,0,0,-0.0509,-0.0524,-0.0515,-0.0503,-0.045,-0.0397,-0.0301,-0.0243,-0.0158,-0.0131,-0.0094,-0.0117,-0.0087,-0.0038,-0.0039,-0.0028,-0.0028,-0.0028,-0.0028,-0.0605,-0.058,-0.0608,-0.0571,-0.0538,-0.0431,-0.0374,-0.027,-0.0201,-0.0174,-0.0174,-0.0182,-0.0133,-0.0132,-0.0147,-0.0147,-0.0148,-0.0148,-0.0148,-0.07,-0.0725,-0.0684,-0.0703,-0.0626,-0.0589,-0.0439,-0.037,-0.0258,-0.0222,-0.0186,-0.0117,-0.0139,-0.0155,-0.0154,-0.0153,-0.0152,-0.0152,-0.0151,-0.0778,-0.0789,-0.0791,-0.0808,-0.0783,-0.0684,-0.0616,-0.0495,-0.0348,-0.0322,-0.019,-0.0187,-0.0225,-0.0284,-0.0284,-0.0284,-0.0284,-0.0284,-0.0284,-0.0858,-0.086,-0.0914,-0.0916,-0.0924,-0.088,-0.0719,-0.0612,-0.0404,-0.0276,-0.0274,-0.0226,-0.0222,-0.0229,-0.0284,-0.0284,-0.0284,-0.0284,-0.0284,-0.0959,-0.0953,-0.1041,-0.1068,-0.1079,-0.1033,-0.0878,-0.059,-0.0445,-0.031,-0.021,-0.0211,-0.0157,-0.0154,-0.0157,-0.0191,-0.0191,-0.0191,-0.0191,-0.1023,-0.1029,-0.1141,-0.1199,-0.1217,-0.1105,-0.0899,-0.0576,-0.0283,-0.0145,-0.0147,-0.0126,-0.013,-0.0073,-0.0072,-0.0072,-0.0084,-0.0084,-0.0084,-0.1087,-0.1117,-0.1201,-0.1252,-0.1277,-0.1154,-0.0912,-0.0477,-0.0098,-0.0084,-0.0174,-0.0175,-0.0148,-0.0153,-0.0065,-0.0063,-0.0064,0,0]}],[{"header":{"parameterUnit":"m.s-1","parameterCategory":2,"la1":30.2992,"la2":30.254,"lo1":-89.0895,"lo2":-89.0443,"dy":0.0025,"dx":0.0025,"nx":19,"ny":19,"refTime":"2026-04-22T03:00:00:Z","depth":"4","parameterNumber":2,"parameterNumberName":"U-component_of_CURRENTS"},"data":[0,0,0,-0.1947,-0.195,-0.2113,-0.2114,-0.2202,-0.2202,0,0,0,0,0,0,0,0,0,0,0,-0.1893,-0.1894,-0.1947,-0.1951,-0.2113,-0.2114,-0.2202,-0.2202,0,0,0,0,0,0,0,0,0,0,0,-0.1892,-0.1894,-0.1896,-0.1951,-0.2113,-0.2114,-0.2202,-0.2108,0,0,0,0,0,0,0,0,0,0,-0.1965,-0.1937,-0.1894,-0.1896,-0.1952,-0.2113,-0.2114,-0.2105,-0.2114,-0.2094,0,-0.213,0,-0.2165,-0.2205,-0.2206,0,0,0,-0.195,-0.193,-0.197,-0.1896,-0.1954,-0.2113,-0.204,-0.2111,-0.2121,-0.2105,-0.2132,-0.2136,-0.2167,-0.2206,-0.2206,-0.2278,-0.2278,0,0,-0.1941,-0.1922,-0.1964,-0.1977,-0.2008,-0.2035,-0.2045,-0.2119,-0.2133,-0.2132,-0.2139,-0.2168,-0.2206,-0.2206,-0.2277,-0.2278,0,0,0,-0.1916,-0.1916,-0.1957,-0.1972,-0.201,-0.2039,-0.2051,-0.213,-0.2144,-0.214,-0.2169,-0.2206,-0.2207,-0.2277,-0.2278,-0.2313,0,0,0,-0.191,-0.1901,-0.1953,-0.1944,-0.201,-0.209,-0.206,-0.2139,-0.2148,-0.2169,-0.2206,-0.2207,-0.2277,-0.2277,-0.2311,-0.2317,0,0,0,-0.1883,-0.1899,-0.1921,-0.1942,-0.2013,-0.209,-0.2109,-0.2142,-0.2165,-0.2206,-0.2208,-0.2276,-0.2277,-0.2309,-0.2314,-0.2298,0,0,0,-0.1853,-0.1883,-0.1921,-0.1971,-0.2011,-0.2103,-0.2109,-0.2185,-0.2224,-0.2207,-0.2277,-0.2278,-0.2309,-0.2312,-0.2297,-0.2008,0,0,0,-0.1865,-0.1885,-0.1914,-0.1951,-0.2031,-0.208,-0.2163,-0.2218,-0.2227,-0.2242,-0.2245,-0.2311,-0.2314,-0.2298,-0.2072,0,0,0,0,-0.19,-0.1921,-0.1953,-0.2017,-0.2089,-0.2162,-0.2225,-0.2247,-0.2297,-0.2257,-0.2323,-0.2323,-0.2311,-0.2141,-0.2283,-0.2282,-0.2282,-0.2282,-0.2282,-0.1862,-0.1919,-0.1974,-0.2053,-0.2121,-0.2223,-0.2275,-0.2315,-0.2323,-0.2353,-0.236,-0.2384,-0.2208,-0.2375,-0.2375,-0.2375,-0.2375,-0.2375,-0.2375,-0.1859,-0.1878,-0.1981,-0.2056,-0.2151,-0.2232,-0.2324,-0.2354,-0.2397,-0.2401,-0.2388,-0.2202,-0.2379,-0.2378,-0.2378,-0.2377,-0.2377,-0.2377,-0.2377,-0.1802,-0.1817,-0.19,-0.2011,-0.2123,-0.2238,-0.2287,-0.2373,-0.2415,-0.2432,-0.2222,-0.2395,-0.238,-0.2421,-0.2421,-0.2421,-0.2421,-0.2421,-0.2421,-0.169,-0.1772,-0.1821,-0.1958,-0.2025,-0.2128,-0.2268,-0.2282,-0.2354,-0.2221,-0.2435,-0.2398,-0.2397,-0.2382,-0.2421,-0.2421,-0.2421,-0.2421,-0.2421,-0.1575,-0.1633,-0.168,-0.1746,-0.1881,-0.1931,-0.2116,-0.2084,-0.2068,-0.1994,-0.2092,-0.2108,-0.2058,-0.2065,-0.2035,-0.1974,-0.197,-0.1967,0,-0.1469,-0.151,-0.1536,-0.1581,-0.1621,-0.1789,-0.1712,-0.1773,-0.1827,-0.1765,-0.2062,-0.2174,-0.2183,-0.2131,-0.2131,-0.2096,0,0,0,-0.1372,-0.1404,-0.1366,-0.1449,-0.1482,-0.1532,-0.1675,-0.1609,-0.1845,-0.1739,-0.1876,-0.19,-0.2226,-0.242,-0.2382,-0.238,-0.2353,0,0]},{"header":{"parameterUnit":"m.s-1","parameterCategory":2,"la1":30.2992,"la2":30.254,"lo1":-89.0895,"lo2":-89.0443,"dy":0.0025,"dx":0.0025,"nx":19,"ny":19,"refTime":"2026-04-22T03:00:00:Z","depth":"4","parameterNumber":3,"parameterNumberName":"V-component_of_CURRENTS"},"data":[0,0,0,-0.0278,-0.0277,-0.0215,-0.0215,-0.0097,-0.0096,0,0,0,0,0,0,0,0,0,0,0,-0.0302,-0.0302,-0.0278,-0.0277,-0.0215,-0.0215,-0.0098,-0.0096,0,0,0,0,0,0,0,0,0,0,0,-0.0302,-0.0302,-0.0302,-0.0276,-0.0215,-0.0215,-0.0098,-0.015,0,0,0,0,0,0,0,0,0,0,-0.0214,-0.0253,-0.0302,-0.0302,-0.0276,-0.0215,-0.0215,-0.0153,-0.0147,-0.0119,0,-0.0121,0,-0.011,-0.0089,-0.0089,0,0,0,-0.0263,-0.0258,-0.0237,-0.0302,-0.0276,-0.0215,-0.0239,-0.015,-0.0143,-0.011,-0.012,-0.0116,-0.0108,-0.0088,-0.0088,-0.0014,-0.0014,0,0,-0.0266,-0.0289,-0.0243,-0.0234,-0.0275,-0.0241,-0.0237,-0.0146,-0.0147,-0.0119,-0.0113,-0.0106,-0.0087,-0.0087,-0.0014,-0.0014,0,0,0,-0.0285,-0.0291,-0.0273,-0.0238,-0.0232,-0.024,-0.0235,-0.0151,-0.0144,-0.0112,-0.0105,-0.0087,-0.0085,-0.0014,-0.0014,-0.0103,0,0,0,-0.0287,-0.0303,-0.0275,-0.0288,-0.0235,-0.0198,-0.0242,-0.0151,-0.014,-0.0105,-0.0087,-0.0084,-0.0014,-0.0014,-0.0101,-0.0148,0,0,0,-0.0302,-0.0305,-0.0302,-0.0289,-0.0268,-0.0199,-0.0187,-0.0148,-0.0136,-0.0088,-0.0084,-0.0014,-0.0014,-0.0099,-0.0143,-0.0121,0,0,0,-0.032,-0.0335,-0.0303,-0.0318,-0.0269,-0.0246,-0.0187,-0.016,-0.0127,-0.0086,-0.0014,-0.0014,-0.0098,-0.0141,-0.0119,-0.0124,0,0,0,-0.035,-0.034,-0.0349,-0.0318,-0.0327,-0.0253,-0.0246,-0.0177,-0.0114,-0.0038,-0.0036,-0.0102,-0.0143,-0.012,-0.0126,0,0,0,0,-0.0366,-0.038,-0.0375,-0.0373,-0.0336,-0.0311,-0.0236,-0.0192,-0.0127,-0.0096,-0.0077,-0.01,-0.0083,-0.0079,-0.0014,-0.0014,-0.0014,-0.0014,-0.0014,-0.0436,-0.0422,-0.045,-0.0431,-0.0412,-0.0343,-0.0307,-0.0229,-0.0166,-0.0148,-0.0156,-0.0178,-0.0177,-0.0128,-0.0129,-0.0129,-0.013,-0.013,-0.013,-0.0507,-0.0529,-0.0516,-0.054,-0.05,-0.0483,-0.0378,-0.0325,-0.0245,-0.0204,-0.0182,-0.0154,-0.0138,-0.0137,-0.0135,-0.0135,-0.0134,-0.0133,-0.0133,-0.0561,-0.0572,-0.0591,-0.0628,-0.0636,-0.0577,-0.0544,-0.0452,-0.0332,-0.0318,-0.0253,-0.0215,-0.0225,-0.0289,-0.0289,-0.0289,-0.0289,-0.0289,-0.029,-0.0609,-0.0626,-0.0689,-0.072,-0.0748,-0.0739,-0.064,-0.0563,-0.0437,-0.035,-0.0331,-0.023,-0.0225,-0.0231,-0.0291,-0.0291,-0.0291,-0.0291,-0.0291,-0.0672,-0.0684,-0.0776,-0.0823,-0.0878,-0.0857,-0.0776,-0.0588,-0.0504,-0.0398,-0.0336,-0.0333,-0.0289,-0.0281,-0.0289,-0.0368,-0.0368,-0.0369,0,-0.0712,-0.0726,-0.0849,-0.0927,-0.0964,-0.0918,-0.0798,-0.0678,-0.0505,-0.0505,-0.0508,-0.0448,-0.0441,-0.0402,-0.0395,-0.041,0,0,0,-0.0757,-0.0789,-0.0879,-0.0955,-0.0998,-0.0852,-0.076,-0.0688,-0.054,-0.043,-0.0376,-0.0374,-0.0368,-0.0297,-0.0221,-0.0215,-0.0221,0,0]}]]